| time (UTC) | temp F | wind direction | speed MPH | gust MPH | rain 1hr in | rain 24hr in | rain mn in | humidity % | barometer mb |
| 20260901041535 | 69 | 131 | 0.0 | 2.0 | 0.00 | 0.84 | 0.00 | 84 | 1012.4 |
| 20260901040032 | 70 | 153 | 0.0 | 2.0 | 0.00 | 0.84 | 0.00 | 84 | 1012.6 |
| 20260901034538 | 70 | 129 | 0.0 | 2.0 | 0.00 | 0.84 | 0.84 | 84 | 1012.7 |
| 20260901033030 | 70 | 259 | 0.0 | 1.0 | 0.00 | 0.84 | 0.84 | 84 | 1012.8 |
| 20260901031536 | 70 | 259 | 0.0 | 1.0 | 0.00 | 0.84 | 0.84 | 83 | 1013.0 |
| 20260901030028 | 70 | 260 | 0.0 | 1.0 | 0.00 | 0.84 | 0.84 | 83 | 1013.0 |
| 20260901024528 | 70 | 149 | 0.0 | 1.0 | 0.00 | 0.84 | 0.84 | 83 | 1013.2 |
| 20260901023028 | 70 | 155 | 0.0 | 1.0 | 0.00 | 0.84 | 0.84 | 83 | 1013.1 |
| 20260901021529 | 70 | 155 | 1.0 | 4.0 | 0.00 | 0.84 | 0.84 | 84 | 1012.9 |
| 20260901020027 | 71 | 152 | 0.0 | 2.0 | 0.00 | 0.84 | 0.84 | 85 | 1012.7 |
| 20260901014526 | 71 | 195 | 0.0 | 3.0 | 0.00 | 0.84 | 0.84 | 85 | 1012.8 |
| 20260901013026 | 71 | 146 | 0.0 | 2.0 | 0.00 | 0.84 | 0.84 | 85 | 1012.8 |
| 20260901011525 | 71 | 187 | 0.0 | 2.0 | 0.00 | 0.84 | 0.84 | 84 | 1012.7 |
| 20260901010036 | 71 | 153 | 0.0 | 3.0 | 0.00 | 0.84 | 0.84 | 84 | 1012.8 |
| 20260901004523 | 71 | 240 | 0.0 | 3.0 | 0.00 | 1.02 | 0.84 | 86 | 1012.7 |
| 20260901003023 | 72 | 166 | 0.0 | 3.0 | 0.00 | 1.02 | 0.84 | 88 | 1012.7 |
| 20260901001522 | 72 | 140 | 0.0 | 5.0 | 0.00 | 1.02 | 0.84 | 89 | 1012.9 |
| 20260901000027 | 72 | 172 | 0.0 | 5.0 | 0.00 | 1.02 | 0.84 | 91 | 1013.1 |
| 20260831234519 | 72 | 205 | 0.0 | 1.0 | 0.00 | 1.15 | 0.84 | 92 | 1013.3 |
| 20260831233017 | 73 | 245 | 0.0 | 4.0 | 0.00 | 1.15 | 0.84 | 92 | 1013.3 |
| 20260831231517 | 73 | 233 | 0.0 | 2.0 | 0.00 | 1.15 | 0.84 | 92 | 1013.5 |
| 20260831230015 | 73 | 187 | 0.0 | 3.0 | 0.00 | 1.15 | 0.84 | 91 | 1013.7 |
| 20260831224515 | 73 | 257 | 1.0 | 2.0 | 0.00 | 1.19 | 0.84 | 91 | 1013.7 |
| 20260831223020 | 73 | 122 | 0.0 | 3.0 | 0.00 | 1.19 | 0.84 | 91 | 1013.7 |
| 20260831221519 | 73 | 149 | 1.0 | 4.0 | 0.00 | 1.19 | 0.84 | 91 | 1013.5 |
| 20260831220013 | 74 | 260 | 0.0 | 2.0 | 0.00 | 1.19 | 0.84 | 92 | 1014.0 |
| 20260831214513 | 74 | 133 | 0.0 | 3.0 | 0.00 | 1.24 | 0.84 | 92 | 1013.7 |
| 20260831213012 | 74 | 208 | 0.0 | 1.0 | 0.00 | 1.24 | 0.84 | 93 | 1013.7 |
| 20260831211512 | 75 | 143 | 0.0 | 1.0 | 0.00 | 1.24 | 0.84 | 93 | 1013.8 |
| 20260831210026 | 76 | 181 | 0.0 | 5.0 | 0.00 | 1.24 | 0.84 | 92 | 1013.8 |
| 20260831204509 | 75 | 118 | 0.0 | 4.0 | 0.00 | 1.34 | 0.84 | 90 | 1013.6 |
| 20260831203004 | 73 | 133 | 0.0 | 3.0 | 0.00 | 1.34 | 0.84 | 76 | 1013.5 |
| 20260831201502 | 72 | 138 | 0.0 | 2.0 | 0.00 | 1.34 | 0.84 | 84 | 1014.1 |
| 20260831200001 | 72 | 141 | 0.0 | 1.0 | 0.01 | 1.34 | 0.84 | 85 | 1014.4 |
| 20260831194501 | 72 | 146 | 0.0 | 1.0 | 0.02 | 1.50 | 0.84 | 86 | 1014.5 |
| 20260831193131 | 72 | 250 | 0.0 | 1.0 | 0.06 | 1.50 | 0.84 | 85 | 1014.3 |
| 20260831191559 | 71 | 173 | 0.0 | 1.0 | 0.07 | 1.50 | 0.84 | 84 | 1015.0 |
| 20260831190058 | 71 | 143 | 0.0 | 1.0 | 0.06 | 1.49 | 0.83 | 89 | 1014.3 |
| 20260831184556 | 71 | 143 | 0.0 | 1.0 | 0.06 | 1.54 | 0.83 | 91 | 1015.3 |
| 20260831183101 | 71 | 205 | 0.0 | 3.0 | 0.02 | 1.50 | 0.79 | 93 | 1016.1 |
| 20260831181608 | 71 | 197 | 0.0 | 1.0 | 0.00 | 1.49 | 0.77 | 93 | 1015.8 |
| 20260831180052 | 71 | 239 | 1.0 | 3.0 | 0.01 | 1.49 | 0.77 | 93 | 1016.0 |
| 20260831174551 | 71 | 253 | 2.0 | 3.0 | 0.02 | 1.65 | 0.77 | 93 | 1016.0 |
| 20260831173051 | 70 | 236 | 0.0 | 1.0 | 0.04 | 1.65 | 0.77 | 91 | 1015.8 |
| 20260831171550 | 70 | 222 | 0.0 | 3.0 | 0.12 | 1.65 | 0.77 | 91 | 1016.0 |
| 20260831170049 | 69 | 250 | 3.0 | 5.0 | 0.17 | 1.65 | 0.76 | 92 | 1016.2 |
| 20260831164605 | 69 | 276 | 4.0 | 6.0 | 0.18 | 1.96 | 0.76 | 92 | 1016.4 |
| 20260831163048 | 70 | 253 | 8.0 | 9.0 | 0.28 | 1.94 | 0.73 | 92 | 1016.6 |
| 20260831161601 | 70 | 231 | 6.0 | 9.0 | 0.20 | 1.85 | 0.65 | 90 | 1017.0 |
| 20260831160100 | 70 | 266 | 4.0 | 7.0 | 0.14 | 1.80 | 0.59 | 91 | 1017.2 |
| 20260831154559 | 70 | 255 | 6.0 | 9.0 | 0.13 | 2.00 | 0.56 | 92 | 1017.2 |
| 20260831153043 | 72 | 255 | 7.0 | 10.0 | 0.00 | 1.88 | 0.45 | 93 | 1016.7 |
| 20260831151541 | 73 | 212 | 1.0 | 4.0 | 0.00 | 1.88 | 0.45 | 92 | 1016.4 |
| 20260831150041 | 74 | 242 | 0.0 | 1.0 | 0.00 | 1.88 | 0.45 | 90 | 1015.9 |
| 20260831144535 | 74 | 242 | 0.0 | 1.0 | 0.00 | 1.91 | 0.45 | 90 | 1015.6 |
| 20260831143030 | 74 | 242 | 0.0 | 1.0 | 0.00 | 1.91 | 0.45 | 83 | 1015.5 |
| 20260831141531 | 73 | 242 | 0.0 | 3.0 | 0.00 | 1.91 | 0.45 | 80 | 1015.5 |
| 20260831140025 | 73 | 217 | 0.0 | 3.0 | 0.00 | 1.91 | 0.45 | 65 | 1015.5 |
| 20260831134526 | 72 | 253 | 0.0 | 3.0 | 0.00 | 1.91 | 0.45 | 65 | 1015.4 |
| 20260831133021 | 71 | 143 | 0.0 | 3.0 | 0.00 | 1.91 | 0.45 | 65 | 1015.1 |
| 20260831131520 | 70 | 142 | 0.0 | 3.0 | 0.00 | 1.91 | 0.45 | 65 | 1015.1 |
| 20260831130013 | 69 | 138 | 0.0 | 2.0 | 0.02 | 1.91 | 0.45 | 66 | 1015.3 |
| 20260831124511 | 68 | 141 | 0.0 | 2.0 | 0.04 | 2.02 | 0.45 | 66 | 1015.3 |
| 20260831123016 | 68 | 145 | 0.0 | 1.0 | 0.05 | 2.02 | 0.45 | 66 | 1015.3 |
| 20260831121512 | 68 | 160 | 0.0 | 1.0 | 0.06 | 2.00 | 0.44 | 66 | 1015.1 |
| 20260831120010 | 67 | 161 | 0.0 | 1.0 | 0.06 | 2.00 | 0.43 | 66 | 1015.0 |
| 20260831114506 | 67 | 140 | 0.0 | 1.0 | 0.04 | 2.02 | 0.41 | 66 | 1015.3 |
| 20260831113007 | 67 | 146 | 0.0 | 2.0 | 0.15 | 2.02 | 0.40 | 67 | 1015.7 |
| 20260831111505 | 67 | 149 | 0.0 | 2.0 | 0.28 | 2.00 | 0.39 | 67 | 1015.7 |
| 20260831110004 | 67 | 134 | 0.0 | 2.0 | 0.31 | 1.99 | 0.38 | 67 | 1015.8 |
| 20260831104509 | 67 | 135 | 0.0 | 2.0 | 0.31 | 1.98 | 0.37 | 66 | 1015.8 |
| 20260831103100 | 67 | 135 | 0.0 | 3.0 | 0.27 | 1.91 | 0.28 | 67 | 1015.9 |
| 20260831101558 | 67 | 150 | 0.0 | 4.0 | 0.09 | 1.73 | 0.12 | 67 | 1015.6 |
| 20260831100112 | 67 | 149 | 0.0 | 2.0 | 0.04 | 1.68 | 0.06 | 67 | 1015.3 |
| 20260831094556 | 67 | 132 | 1.0 | 3.0 | 0.04 | 1.68 | 0.06 | 67 | 1015.3 |
| 20260831093100 | 66 | 158 | 0.0 | 4.0 | 0.00 | 1.64 | 0.02 | 67 | 1015.2 |
| 20260831091556 | 66 | 149 | 0.0 | 1.0 | 0.00 | 1.64 | 0.02 | 68 | 1015.3 |
| 20260831090108 | 66 | 135 | 0.0 | 2.0 | 0.00 | 1.64 | 0.02 | 68 | 1015.3 |
| 20260831084552 | 66 | 138 | 0.0 | 2.0 | 0.00 | 1.64 | 0.02 | 68 | 1015.4 |
| 20260831083105 | 66 | 147 | 1.0 | 3.0 | 0.00 | 1.64 | 0.02 | 68 | 1015.2 |
| 20260831081559 | 66 | 137 | 0.0 | 3.0 | 0.00 | 1.64 | 0.02 | 68 | 1015.2 |
| 20260831080122 | 66 | 125 | 0.0 | 4.0 | 0.02 | 1.64 | 0.02 | 69 | 1015.2 |
| 20260831074548 | 66 | 143 | 0.0 | 3.0 | 0.02 | 1.64 | 0.02 | 69 | 1015.2 |
| 20260831073047 | 65 | 137 | 0.0 | 3.0 | 0.02 | 1.64 | 0.02 | 69 | 1015.5 |
| 20260831071547 | 65 | 138 | 0.0 | 2.0 | 0.02 | 1.64 | 0.02 | 70 | 1015.6 |
| 20260831070042 | 65 | 141 | 0.0 | 2.0 | 0.01 | 1.62 | 0.01 | 71 | 1015.7 |
| 20260831064541 | 65 | 154 | 0.0 | 2.0 | 0.01 | 1.62 | 0.01 | 71 | 1015.7 |
| 20260831063041 | 65 | 185 | 0.0 | 2.0 | 0.00 | 1.61 | 0.00 | 72 | 1015.8 |
| 20260831061542 | 64 | 166 | 1.0 | 2.0 | 0.00 | 1.61 | 0.00 | 73 | 1015.8 |
| 20260831060038 | 64 | 190 | 0.0 | 2.0 | 0.00 | 1.61 | 0.00 | 74 | 1015.9 |
| 20260831054536 | 64 | 139 | 0.0 | 2.0 | 0.00 | 1.61 | 0.00 | 74 | 1016.0 |
| 20260831053057 | 64 | 152 | 0.0 | 4.0 | 0.00 | 1.61 | 0.00 | 75 | 1016.0 |
| 20260831051537 | 64 | 129 | 1.0 | 3.0 | 0.00 | 1.61 | 0.00 | 75 | 1016.0 |
| 20260831050032 | 64 | 150 | 0.0 | 3.0 | 0.00 | 1.61 | 0.00 | 75 | 1015.9 |
| 20260831044607 | 64 | 155 | 0.0 | 2.0 | 0.00 | 1.61 | 0.00 | 75 | 1016.1 |
| 20260831043031 | 63 | 126 | 0.0 | 4.0 | 0.00 | 1.61 | 0.00 | 75 | 1016.1 |